TimeCST,TemperatureF,Dew PointF,Humidity,Sea Level PressureIn,VisibilityMPH,Wind Direction,Wind SpeedMPH,Gust SpeedMPH,PrecipitationIn,Events,Conditions,WindDirDegrees,DateUTC
12:56 AM,17.1,12.9,84,30.09,10.0,SSW,8.1,-,N/A,,Overcast,200,2013-01-02 06:56:00
1:56 AM,17.1,12.9,84,30.08,10.0,SSW,5.8,-,N/A,,Overcast,200,2013-01-02 07:56:00
2:56 AM,18.0,12.0,78,30.08,10.0,SSW,10.4,-,N/A,,Overcast,200,2013-01-02 08:56:00
3:10 AM,17.6,12.2,79,30.02,10.0,SW,8.1,-,N/A,,Overcast,220,2013-01-02 09:10:00
3:56 AM,16.0,10.9,81,30.07,10.0,South,9.2,-,N/A,,Overcast,190,2013-01-02 09:56:00
4:26 AM,14.0,8.6,79,30.00,10.0,SSW,8.1,-,N/A,,Scattered Clouds,200,2013-01-02 10:26:00
4:56 AM,12.9,9.0,84,30.06,10.0,South,5.8,-,N/A,,Partly Cloudy,190,2013-01-02 10:56:00
5:38 AM,12.2,8.6,85,29.99,10.0,South,5.8,-,N/A,,Mostly Cloudy,180,2013-01-02 11:38:00
5:56 AM,12.0,8.1,84,30.06,10.0,South,5.8,-,N/A,,Overcast,170,2013-01-02 11:56:00
6:18 AM,12.2,8.6,85,29.99,10.0,SSE,4.6,-,N/A,,Overcast,160,2013-01-02 12:18:00
6:56 AM,12.0,8.1,84,30.04,9.0,South,5.8,-,N/A,,Overcast,180,2013-01-02 12:56:00
7:23 AM,10.4,6.8,85,29.99,10.0,SSE,5.8,-,N/A,,Overcast,160,2013-01-02 13:23:00
7:34 AM,10.4,6.8,85,29.99,10.0,South,5.8,-,N/A,,Clear,170,2013-01-02 13:34:00
7:56 AM,10.0,6.1,84,30.05,10.0,South,3.5,-,N/A,,Overcast,180,2013-01-02 13:56:00
8:44 AM,10.4,6.8,85,30.00,10.0,South,5.8,-,N/A,,Overcast,190,2013-01-02 14:44:00
8:56 AM,10.9,6.1,81,30.06,10.0,South,5.8,-,N/A,,Overcast,180,2013-01-02 14:56:00
9:14 AM,10.4,5.0,79,30.00,10.0,South,5.8,-,N/A,,Overcast,180,2013-01-02 15:14:00
9:56 AM,10.9,5.0,77,30.07,9.0,SW,6.9,-,N/A,,Overcast,220,2013-01-02 15:56:00
10:39 AM,12.2,6.8,79,30.00,10.0,SSW,5.8,-,N/A,,Overcast,200,2013-01-02 16:39:00
10:56 AM,12.0,5.0,73,30.06,10.0,South,5.8,-,N/A,,Overcast,180,2013-01-02 16:56:00
11:56 AM,15.1,6.1,68,30.02,10.0,SSE,4.6,-,N/A,,Clear,160,2013-01-02 17:56:00
12:23 PM,15.8,6.8,68,29.96,10.0,SSE,3.5,-,N/A,,Mostly Cloudy,160,2013-01-02 18:23:00
12:56 PM,17.1,8.1,68,30.00,9.0,South,4.6,-,N/A,,Mostly Cloudy,170,2013-01-02 18:56:00
1:35 PM,17.6,8.6,68,29.95,9.0,SSE,6.9,-,N/A,,Scattered Clouds,150,2013-01-02 19:35:00
1:56 PM,18.0,10.0,71,30.00,8.0,SSW,6.9,-,N/A,,Mostly Cloudy,210,2013-01-02 19:56:00
2:04 PM,17.6,10.4,73,29.95,7.0,South,9.2,-,N/A,,Mostly Cloudy,190,2013-01-02 20:04:00
2:56 PM,18.0,10.0,71,30.02,7.0,West,5.8,-,N/A,,Overcast,260,2013-01-02 20:56:00
3:56 PM,18.0,10.0,71,30.02,7.0,SSW,4.6,-,N/A,,Overcast,200,2013-01-02 21:56:00
4:56 PM,16.0,8.1,71,30.04,9.0,West,4.6,-,N/A,,Overcast,270,2013-01-02 22:56:00
5:56 PM,16.0,8.1,71,30.06,8.0,Calm,Calm,-,N/A,,Overcast,0,2013-01-02 23:56:00
6:13 PM,15.8,8.6,73,30.00,8.0,Calm,Calm,-,N/A,,Overcast,0,2013-01-03 00:13:00
6:56 PM,16.0,10.0,77,30.06,5.0,Calm,Calm,-,0.00,Snow,Light Snow,0,2013-01-03 00:56:00
7:56 PM,15.1,10.0,80,30.06,5.0,Calm,Calm,-,0.00,,Haze,0,2013-01-03 01:56:00
8:56 PM,15.1,10.0,80,30.07,6.0,West,3.5,-,N/A,,Haze,270,2013-01-03 02:56:00
9:56 PM,16.0,10.0,77,30.08,7.0,West,5.8,-,N/A,,Overcast,270,2013-01-03 03:56:00
10:12 PM,15.8,10.4,79,30.02,7.0,West,4.6,-,N/A,,Overcast,270,2013-01-03 04:12:00
10:22 PM,15.8,10.4,79,30.03,7.0,West,6.9,-,N/A,,Overcast,280,2013-01-03 04:22:00
10:29 PM,15.8,10.4,79,30.03,7.0,West,5.8,-,N/A,,Overcast,280,2013-01-03 04:29:00
10:56 PM,16.0,10.9,81,30.09,6.0,WNW,3.5,-,N/A,,Haze,290,2013-01-03 04:56:00
11:41 PM,15.8,10.4,79,30.05,6.0,West,3.5,-,N/A,,Haze,280,2013-01-03 05:41:00
11:56 PM,16.0,10.9,81,30.09,6.0,WSW,4.6,-,N/A,,Haze,250,2013-01-03 05:56:00